| time (UTC) | temp F | wind direction | speed knots | gust knots | rain 1hr in | rain 24hr in | rain mn in | humidity % | barometer mb |
| 20260506061538 | 77 | 141 | 0.9 | 4.3 | 0.00 | 0.00 | 0.00 | 91 | 1009.1 |
| 20260506044538 | 77 | 162 | 0.9 | 4.3 | 0.00 | 0.00 | 0.00 | 90 | 1009.1 |
| 20260506043028 | 77 | 131 | 0.0 | 4.3 | 0.00 | 0.00 | 0.00 | 90 | 1009.2 |
| 20260506041526 | 77 | 125 | 1.7 | 4.3 | 0.00 | 0.00 | 0.00 | 90 | 1008.8 |
| 20260506040048 | 77 | 214 | 0.9 | 6.1 | 0.00 | 0.00 | 0.00 | 89 | 1009.1 |
| 20260506034525 | 77 | 140 | 1.7 | 6.1 | 0.00 | 0.00 | 0.00 | 89 | 1008.8 |
| 20260506033024 | 77 | 120 | 1.7 | 7.8 | 0.00 | 0.00 | 0.00 | 88 | 1008.6 |
| 20260506031538 | 78 | 126 | 0.9 | 7.8 | 0.00 | 0.00 | 0.00 | 88 | 1008.5 |
| 20260506030022 | 78 | 169 | 2.6 | 7.8 | 0.00 | 0.00 | 0.00 | 87 | 1008.5 |
| 20260506024522 | 78 | 159 | 2.6 | 6.1 | 0.00 | 0.00 | 0.00 | 87 | 1008.2 |
| 20260506023021 | 78 | 108 | 1.7 | 7.0 | 0.00 | 0.00 | 0.00 | 87 | 1008.1 |
| 20260506021521 | 78 | 190 | 1.7 | 4.3 | 0.00 | 0.00 | 0.00 | 86 | 1007.9 |
| 20260506020020 | 78 | 226 | 2.6 | 6.1 | 0.00 | 0.00 | 0.00 | 86 | 1007.7 |
| 20260506014519 | 79 | 101 | 2.6 | 6.1 | 0.00 | 0.00 | 0.00 | 85 | 1007.5 |
| 20260506013019 | 79 | 143 | 1.7 | 5.2 | 0.00 | 0.00 | 0.00 | 85 | 1007.2 |
| 20260506011519 | 79 | 169 | 2.6 | 8.7 | 0.00 | 0.00 | 0.00 | 84 | 1006.9 |
| 20260506010018 | 79 | 122 | 2.6 | 5.2 | 0.00 | 0.00 | 0.00 | 83 | 1006.9 |
| 20260506004524 | 80 | 112 | 0.9 | 7.0 | 0.00 | 0.00 | 0.00 | 82 | 1006.8 |
| 20260506003017 | 80 | 141 | 2.6 | 6.1 | 0.00 | 0.00 | 0.00 | 81 | 1006.5 |
| 20260506001515 | 80 | 126 | 1.7 | 7.0 | 0.00 | 0.00 | 0.00 | 80 | 1006.5 |
| 20260506000017 | 80 | 125 | 3.5 | 9.6 | 0.00 | 0.00 | 0.00 | 79 | 1006.6 |
| 20260505234515 | 81 | 188 | 3.5 | 10.4 | 0.00 | 0.00 | 0.00 | 79 | 1006.5 |
| 20260505233014 | 81 | 140 | 3.5 | 11.3 | 0.00 | 0.00 | 0.00 | 80 | 1006.5 |
| 20260505231513 | 81 | 235 | 3.5 | 8.7 | 0.00 | 0.00 | 0.00 | 79 | 1006.5 |
| 20260505230021 | 81 | 110 | 4.3 | 11.3 | 0.00 | 0.00 | 0.00 | 79 | 1006.6 |
| 20260505224512 | 82 | 131 | 3.5 | 8.7 | 0.00 | 0.00 | 0.00 | 80 | 1006.5 |
| 20260505223011 | 82 | 198 | 2.6 | 8.7 | 0.00 | 0.00 | 0.00 | 79 | 1006.7 |
| 20260505221510 | 82 | 142 | 3.5 | 9.6 | 0.00 | 0.00 | 0.00 | 79 | 1006.6 |
| 20260505220007 | 83 | 180 | 3.5 | 9.6 | 0.00 | 0.00 | 0.00 | 78 | 1006.8 |
| 20260505214506 | 83 | 217 | 1.7 | 7.8 | 0.00 | 0.00 | 0.00 | 78 | 1007.0 |
| 20260505213004 | 84 | 191 | 2.6 | 7.8 | 0.00 | 0.00 | 0.00 | 78 | 1007.1 |
| 20260505211502 | 83 | 165 | 3.5 | 12.2 | 0.00 | 0.00 | 0.00 | 78 | 1007.3 |
| 20260505210103 | 83 | 169 | 2.6 | 9.6 | 0.00 | 0.00 | 0.00 | 79 | 1007.5 |
| 20260505204602 | 83 | 137 | 3.5 | 13.0 | 0.00 | 0.00 | 0.00 | 78 | 1007.8 |
| 20260505203059 | 83 | 145 | 2.6 | 8.7 | 0.00 | 0.00 | 0.00 | 77 | 1007.9 |
| 20260505201559 | 84 | 133 | 2.6 | 7.8 | 0.00 | 0.00 | 0.00 | 77 | 1008.1 |
| 20260505200055 | 84 | 173 | 1.7 | 9.6 | 0.00 | 0.00 | 0.00 | 76 | 1008.3 |
| 20260505194608 | 84 | 146 | 1.7 | 7.0 | 0.00 | 0.00 | 0.00 | 79 | 1008.4 |
| 20260505193050 | 83 | 132 | 1.7 | 7.0 | 0.00 | 0.00 | 0.00 | 79 | 1008.5 |
| 20260505191550 | 82 | 113 | 0.9 | 5.2 | 0.00 | 0.00 | 0.00 | 80 | 1008.7 |
| 20260505190048 | 82 | 204 | 2.6 | 7.0 | 0.00 | 0.00 | 0.00 | 79 | 1008.6 |
| 20260505184548 | 81 | 152 | 0.9 | 7.0 | 0.00 | 0.00 | 0.00 | 81 | 1008.8 |
| 20260505183048 | 82 | 281 | 0.9 | 7.0 | 0.00 | 0.00 | 0.00 | 80 | 1008.9 |
| 20260505181550 | 82 | 240 | 0.0 | 4.3 | 0.00 | 0.00 | 0.00 | 82 | 1009.0 |
| 20260505180044 | 81 | 160 | 1.7 | 6.1 | 0.00 | 0.00 | 0.00 | 82 | 1009.2 |
| 20260505174546 | 80 | 123 | 0.9 | 7.0 | 0.00 | 0.00 | 0.00 | 83 | 1009.3 |
| 20260505173041 | 80 | 191 | 0.9 | 5.2 | 0.00 | 0.00 | 0.00 | 83 | 1009.5 |
| 20260505171541 | 80 | 131 | 0.9 | 7.8 | 0.00 | 0.00 | 0.00 | 83 | 1009.4 |
| 20260505170040 | 80 | 121 | 2.6 | 7.8 | 0.00 | 0.00 | 0.00 | 82 | 1009.5 |
| 20260505164542 | 80 | 136 | 0.9 | 8.7 | 0.00 | 0.00 | 0.00 | 83 | 1009.5 |
| 20260505163046 | 79 | 232 | 1.7 | 5.2 | 0.00 | 0.00 | 0.00 | 85 | 1009.4 |
| 20260505161533 | 78 | 182 | 0.9 | 7.0 | 0.00 | 0.00 | 0.00 | 87 | 1009.4 |
| 20260505153028 | 77 | 151 | 3.5 | 7.8 | 0.00 | 0.00 | 0.00 | 88 | 1009.2 |
| 20260505151526 | 77 | 198 | 2.6 | 7.0 | 0.00 | 0.00 | 0.00 | 88 | 1009.2 |
| 20260505124506 | 71 | 203 | 0.9 | 4.3 | 0.00 | 0.00 | 0.00 | 96 | 1008.9 |
| 20260505123003 | 71 | 155 | 0.9 | 5.2 | 0.00 | 0.00 | 0.00 | 96 | 1008.7 |
| 20260505121502 | 70 | 148 | 0.9 | 3.5 | 0.00 | 0.00 | 0.00 | 96 | 1008.5 |
| 20260505120001 | 70 | 210 | 0.9 | 3.5 | 0.00 | 0.00 | 0.00 | 96 | 1008.3 |
| 20260505114601 | 70 | 229 | 0.9 | 2.6 | 0.00 | 0.00 | 0.00 | 96 | 1008.3 |
| 20260505113106 | 70 | 151 | 0.0 | 2.6 | 0.00 | 0.00 | 0.00 | 96 | 1008.5 |
| 20260505111558 | 69 | 143 | 0.0 | 2.6 | 0.00 | 0.00 | 0.00 | 96 | 1008.3 |
| 20260505110116 | 69 | 143 | 0.9 | 2.6 | 0.00 | 0.00 | 0.00 | 96 | 1008.3 |
| 20260505101601 | 69 | 132 | 0.9 | 1.7 | 0.00 | 0.00 | 0.00 | 96 | 1008.4 |
| 20260505100054 | 69 | 127 | 0.0 | 3.5 | 0.00 | 0.00 | 0.00 | 97 | 1008.6 |
| 20260505094555 | 69 | 175 | 0.9 | 3.5 | 0.00 | 0.00 | 0.00 | 96 | 1008.5 |
| 20260505093052 | 69 | 136 | 0.0 | 2.6 | 0.00 | 0.00 | 0.00 | 96 | 1008.5 |
| 20260505091549 | 68 | 157 | 0.9 | 2.6 | 0.00 | 0.00 | 0.00 | 96 | 1008.6 |
| 20260505090048 | 69 | 162 | 0.9 | 3.5 | 0.00 | 0.00 | 0.00 | 96 | 1008.8 |
| 20260505084547 | 69 | 182 | 0.9 | 3.5 | 0.00 | 0.00 | 0.00 | 96 | 1008.8 |
| 20260505083046 | 69 | 172 | 0.9 | 4.3 | 0.00 | 0.00 | 0.00 | 96 | 1009.0 |
| 20260505081550 | 68 | 149 | 0.0 | 3.5 | 0.00 | 0.00 | 0.00 | 95 | 1009.0 |
| 20260505080049 | 68 | 131 | 0.0 | 2.6 | 0.00 | 0.00 | 0.00 | 95 | 1009.2 |
| 20260505074541 | 68 | 169 | 0.9 | 7.0 | 0.00 | 0.00 | 0.00 | 93 | 1009.2 |
| 20260505073045 | 69 | 202 | 1.7 | 4.3 | 0.00 | 0.00 | 0.00 | 90 | 1009.2 |
| 20260505071548 | 70 | 141 | 1.7 | 5.2 | 0.00 | 0.00 | 0.00 | 88 | 1009.3 |